This is the latest recevied weather packets stored in our database for station/object RV1CJ-14. If no packets are shown the sender has not sent any weather packets the latest 1 day(s).
| Time | Temp. | Humidity | Pressure | Rain* | Wind** | Luminosity | Snow |
|---|---|---|---|---|---|---|---|
| 1778010603 | 7.78° C | 71% | 1002.3 hPa | 0 mm | 0.45 m/s, 342° | 0 W/m² | - |
| 1778010003 | 7.78° C | 71% | 1002.4 hPa | 0 mm | 0 m/s | 0 W/m² | - |
| 1778009403 | 7.78° C | 70% | 1002.3 hPa | 0 mm | 0 m/s | 0 W/m² | - |
| 1778008803 | 7.78° C | 70% | 1002.3 hPa | 0 mm | 0.45 m/s, 342° | 0 W/m² | - |
| 1778008203 | 8.33° C | 70% | 1002.2 hPa | 0 mm | 0.45 m/s, 342° | 0 W/m² | - |
| 1778007603 | 8.33° C | 69% | 1002.3 hPa | 0 mm | 0.45 m/s, 342° | 0 W/m² | - |
| 1778007003 | 8.33° C | 69% | 1002.3 hPa | 0 mm | 0.45 m/s, 342° | 0 W/m² | - |
| 1778006403 | 8.33° C | 68% | 1002.2 hPa | 0 mm | 0.45 m/s, 342° | 0 W/m² | - |
| 1778005803 | 8.89° C | 68% | 1002.2 hPa | 0 mm | 0.45 m/s, 342° | 0 W/m² | - |
| 1778005203 | 8.89° C | 67% | 1002.1 hPa | 0 mm | 0.45 m/s, 342° | 0 W/m² | - |
| 1778004603 | 8.89° C | 67% | 1002.1 hPa | 0 mm | 0.45 m/s, 342° | 0 W/m² | - |
| 1778004003 | 8.89° C | 67% | 1002.1 hPa | 0 mm | 0.45 m/s, 342° | 0 W/m² | - |
| 1778003403 | 9.44° C | 68% | 1002 hPa | 0 mm | 0.45 m/s, 342° | 0 W/m² | - |
| 1778002803 | 9.44° C | 66% | 1002 hPa | 0 mm | 0.45 m/s, 342° | 5 W/m² | - |
| 1778002203 | 9.44° C | 67% | 1001.9 hPa | 0 mm | 0.45 m/s, 342° | 5 W/m² | - |
| 1778001603 | 10° C | 66% | 1001.9 hPa | 0 mm | 0.45 m/s, 342° | 7 W/m² | - |
| 1778001003 | 10° C | 64% | 1001.9 hPa | 0 mm | 0.45 m/s, 342° | 11 W/m² | - |
| 1778000403 | 10.56° C | 62% | 1001.7 hPa | 0 mm | 0.45 m/s, 342° | 12 W/m² | - |
| 1777999803 | 10.56° C | 60% | 1001.7 hPa | 0 mm | 0.89 m/s, 342° | 16 W/m² | - |
| 1777999203 | 10.56° C | 57% | 1001.7 hPa | 0 mm | 0.45 m/s, 342° | 26 W/m² | - |
| 1777998603 | 11.11° C | 56% | 1001.6 hPa | 0 mm | 0.45 m/s, 342° | 16 W/m² | - |
| 1777998003 | 11.11° C | 51% | 1001.6 hPa | 0 mm | 0.89 m/s, 342° | 16 W/m² | - |
| 1777997403 | 11.11° C | 54% | 1001.6 hPa | 0 mm | 0.89 m/s, 341° | 18 W/m² | - |
| 1777996803 | 11.11° C | 55% | 1001.5 hPa | 0 mm | 0.89 m/s, 341° | 19 W/m² | - |
| 1777996203 | 11.67° C | 58% | 1001.5 hPa | 0 mm | 0.89 m/s, 341° | 19 W/m² | - |
* Rain latest hour (hover to see other rain measurements)
** Current wind speed in m/s (hover to see current wind gust speed)